DW6513 Weather Reports


time (UTC)temp
F
wind
direction
speed
knots
gust
knots
rain 1hr
in
rain 24hr
in
rain mn
in
humidity
%
barometer
mb
20260507202801 69 213 6.1 14.8 0.00 0.00 0.00 32 1014.3
20260507202306 69 128 5.2 14.8 0.00 0.00 0.00 32 1014.3
20260507201802 70 123 6.1 7.0 0.00 0.00 0.00 31 1014.3
20260507201302 70 145 6.1 7.8 0.00 0.00 0.00 31 1014.3
20260507200802 71 145 5.2 17.4 0.00 0.00 0.00 31 1014.1
20260507195802 72 145 5.2 11.3 0.00 0.00 0.00 29 1014.1
20260507195305 72 145 4.3 10.4 0.00 0.00 0.00 29 1014.1
20260507194801 71 145 5.2 10.4 0.00 0.00 0.00 30 1014.3
20260507194302 71 145 5.2 13.0 0.00 0.00 0.00 31 1014.3
20260507193802 71 257 6.1 7.8 0.00 0.00 0.00 30 1014.3
20260507192801 71 145 5.2 15.6 0.00 0.00 0.00 31 1014.7
20260507192305 72 145 4.3 6.1 0.00 0.00 0.00 31 1014.7
20260507191802 69 10 5.2 10.4 0.00 0.00 0.00 31 1014.7
20260507191302 70 198 5.2 10.4 0.00 0.00 0.00 33 1014.7
20260507190802 70 145 6.1 7.0 0.00 0.00 0.00 32 1014.8
20260507190302 70 173 6.1 7.8 0.00 0.00 0.00 34 1014.8
20260507185802 69 145 5.2 10.4 0.00 0.00 0.00 33 1014.8
20260507185305 69 131 5.2 10.4 0.00 0.00 0.00 32 1014.8
20260507184802 69 325 4.3 10.4 0.00 0.00 0.00 33 1014.7
20260507184301 69 129 4.3 7.8 0.00 0.00 0.00 36 1014.7
20260507183802 69 145 5.2 10.4 0.00 0.00 0.00 37 1014.7
20260507183302 69 150 5.2 10.4 0.00 0.00 0.00 35 1014.7
20260507182802 68 280 5.2 8.7 0.00 0.00 0.00 36 1015.4
20260507182306 68 129 6.1 12.2 0.00 0.00 0.00 36 1015.4
20260507181802 67 167 6.1 12.2 0.00 0.00 0.00 35 1015.4
20260507181302 67 139 5.2 10.4 0.00 0.00 0.00 37 1015.4
20260507180801 66 33 5.2 7.0 0.00 0.00 0.00 37 1015.9
20260507180302 65 111 6.1 10.4 0.00 0.00 0.00 36 1015.9
20260507175802 65 145 4.3 12.2 0.00 0.00 0.00 37 1015.9
20260507175306 64 135 2.6 12.2 0.00 0.00 0.00 37 1015.9
20260507174302 64 340 6.1 10.4 0.00 0.00 0.00 36 1015.6
20260507173802 63 190 7.0 12.2 0.00 0.00 0.00 37 1015.6
20260507173301 63 161 7.0 18.2 0.00 0.00 0.00 37 1015.6
20260507172802 62 123 7.0 11.3 0.00 0.00 0.00 37 1016.2
20260507172306 63 145 5.2 28.7 0.00 0.00 0.00 37 1016.2
20260507171801 62 303 4.3 10.4 0.00 0.00 0.00 39 1016.2
20260507171302 62 145 5.2 7.8 0.00 0.00 0.00 39 1016.2
20260507170802 62 303 4.3 7.8 0.00 0.00 0.00 40 1016.5
20260507165801 61 167 4.3 7.8 0.00 0.00 0.00 40 1016.5
20260507165301 62 207 4.3 18.2 0.00 0.00 0.00 39 1016.5
20260507164802 62 123 4.3 18.2 0.00 0.00 0.00 40 1016.8
20260507163802 61 145 5.2 10.4 0.00 0.00 0.00 40 1016.8
20260507162801 61 303 2.6 7.0 0.00 0.00 0.00 41 1016.8
20260507162306 61 231 2.6 4.3 0.00 0.00 0.00 42 1016.8
20260507161801 60 257 4.3 7.0 0.00 0.00 0.00 40 1016.8
20260507161302 60 306 4.3 6.1 0.00 0.00 0.00 41 1016.8
20260507160302 60 145 4.3 8.7 0.00 0.00 0.00 42 1017.4
20260507155802 59 145 4.3 8.7 0.00 0.00 0.00 43 1017.4
20260507155305 59 284 4.3 11.3 0.00 0.00 0.00 43 1017.4
20260507154802 59 145 4.3 11.3 0.00 0.00 0.00 45 1017.3
20260507154302 59 167 4.3 10.4 0.00 0.00 0.00 46 1017.3
20260507153802 58 145 4.3 8.7 0.00 0.00 0.00 49 1017.3
20260507153303 58 128 2.6 7.8 0.00 0.00 0.00 51 1017.3
20260507152802 58 145 4.3 5.2 0.00 0.00 0.00 51 1017.7
20260507152305 58 145 4.3 10.4 0.00 0.00 0.00 51 1017.7
20260507151802 58 145 2.6 7.8 0.00 0.00 0.00 49 1017.7
20260507150802 57 167 2.6 7.0 0.00 0.00 0.00 53 1018.0
20260507150302 57 209 2.6 13.0 0.00 0.00 0.00 54 1018.0
20260507145802 57 145 2.6 13.0 0.00 0.00 0.00 54 1018.0
20260507145306 56 151 4.3 7.0 0.00 0.00 0.00 54 1018.0
20260507144802 56 325 3.5 7.0 0.00 0.00 0.00 55 1018.0
20260507144302 56 161 2.6 7.0 0.00 0.00 0.00 56 1018.0
20260507143802 56 145 2.6 7.0 0.00 0.00 0.00 55 1018.0
20260507143302 56 167 2.6 6.1 0.00 0.00 0.00 56 1018.0
20260507142802 55 190 2.6 4.3 0.00 0.00 0.00 56 1017.7
20260507142306 55 282 1.7 4.3 0.00 0.00 0.00 58 1017.7
20260507141302 55 145 1.7 4.3 0.00 0.00 0.00 61 1017.7
20260507140802 54 190 0.9 4.3 0.00 0.00 0.00 60 1017.6
20260507140302 54 161 0.9 4.3 0.00 0.00 0.00 62 1017.6
20260507135802 54 213 0.9 4.3 0.00 0.00 0.00 64 1017.6
20260507135306 53 166 0.9 4.3 0.00 0.00 0.00 64 1017.6
20260507134302 52 257 0.9 4.3 0.00 0.00 0.00 65 1017.9
20260507133803 52 167 0.9 0.0 0.00 0.00 0.00 67 1017.9
20260507133303 52 184 0.9 0.0 0.00 0.00 0.00 68 1017.9
20260507132802 51 145 0.0 1.7 0.00 0.00 0.00 71 1018.1
20260507132306 51 156 0.9 4.3 0.00 0.00 0.00 72 1018.1
20260507131302 50 201 0.9 2.6 0.00 0.00 0.00 78 1018.1
20260507130302 48 145 0.0 2.6 0.00 0.00 0.00 81 1018.1
20260507125804 47 303 0.0 0.0 0.00 0.00 0.00 82 1018.1
20260507125306 47 167 0.0 0.0 0.00 0.00 0.00 82 1018.1
20260507124802 47 190 0.9 0.0 0.00 0.00 0.00 82 1017.9
20260507124302 46 181 0.9 4.3 0.00 0.00 0.00 82 1017.9
20260507123803 46 190 0.9 4.3 0.00 0.00 0.00 83 1017.9
20260507123303 45 190 0.0 0.0 0.00 0.00 0.00 83 1017.9
20260507122803 45 167 0.0 0.0 0.00 0.00 0.00 84 1017.7
20260507122306 44 145 0.0 0.0 0.00 0.00 0.00 84 1017.7
20260507121802 44 145 0.0 0.0 0.00 0.00 0.00 85 1017.7
20260507120802 44 145 0.0 0.0 0.00 0.00 0.00 86 1017.8
20260507120302 44 167 0.0 0.0 0.00 0.00 0.00 86 1017.8
20260507115802 43 167 0.0 0.0 0.00 0.00 0.00 86 1017.8
20260507115306 43 167 0.0 0.0 0.00 0.00 0.00 86 1017.8
20260507113802 42 190 0.0 0.0 0.00 0.00 0.00 85 1017.3
20260507113302 42 347 0.0 0.0 0.00 0.00 0.00 86 1017.3
20260507112803 42 347 0.0 0.0 0.00 0.00 0.00 85 1017.3
20260507112306 42 167 0.0 0.0 0.00 0.00 0.00 85 1017.3
20260507111302 42 167 0.0 0.0 0.00 0.00 0.00 85 1017.3
20260507110803 42 303 0.0 0.0 0.00 0.00 0.00 85 1017.1
20260507110302 42 303 0.0 0.0 0.00 0.00 0.00 84 1017.1
20260507105803 42 303 0.0 0.0 0.00 0.00 0.00 84 1017.1
20260507105306 42 316 0.0 0.0 0.00 0.00 0.00 84 1017.1
20260507104802 42 167 0.0 0.0 0.00 0.00 0.00 83 1016.8
20260507103802 43 167 0.0 0.0 0.00 0.00 0.00 82 1016.8
20260507103302 43 167 0.0 0.0 0.00 0.00 0.00 82 1016.8
20260507102802 43 167 0.0 0.0 0.00 0.00 0.00 81 1017.1
20260507101802 43 145 0.0 0.0 0.00 0.00 0.00 81 1017.1
20260507101302 43 145 0.0 0.0 0.00 0.00 0.00 81 1017.1
20260507100802 43 145 0.0 0.0 0.00 0.00 0.00 81 1017.1
20260507100303 44 145 0.0 0.0 0.00 0.00 0.00 81 1017.1
20260507095802 44 145 0.0 0.0 0.00 0.00 0.00 81 1017.1
20260507095305 44 145 0.0 0.0 0.00 0.00 0.00 81 1017.1
20260507094802 44 145 0.0 0.0 0.00 0.00 0.00 82 1017.1
20260507094303 44 145 0.0 0.0 0.00 0.00 0.00 81 1017.1
20260507093803 44 145 0.0 0.0 0.00 0.00 0.00 82 1017.1
20260507093303 44 145 0.0 0.0 0.00 0.00 0.00 82 1017.1
20260507092802 44 145 0.0 0.0 0.00 0.00 0.00 82 1017.1
20260507092306 44 145 0.0 0.0 0.00 0.00 0.00 82 1017.1
20260507091803 44 145 0.0 0.0 0.00 0.00 0.00 82 1017.1
20260507091302 43 145 0.0 0.0 0.00 0.00 0.00 82 1017.1
20260507090802 43 145 0.0 0.0 0.00 0.00 0.00 81 1017.4
20260507090302 43 145 0.0 0.0 0.00 0.00 0.00 81 1017.4
20260507085803 43 145 0.0 0.0 0.00 0.00 0.00 80 1017.4
20260507085306 43 145 0.0 0.0 0.00 0.00 0.00 80 1017.4
20260507084303 43 145 0.0 0.0 0.00 0.00 0.00 79 1017.2
20260507083303 44 303 0.0 0.0 0.00 0.00 0.00 78 1017.2
20260507082802 44 303 0.0 0.0 0.00 0.00 0.00 78 1017.6
20260507082306 44 303 0.0 0.0 0.00 0.00 0.00 78 1017.6
20260507081802 44 303 0.0 0.0 0.00 0.00 0.00 77 1017.6
20260507081302 44 303 0.0 0.0 0.00 0.00 0.00 77 1017.6
20260507080802 44 303 0.0 0.0 0.00 0.00 0.00 76 1017.3
20260507080303 44 303 0.0 0.0 0.00 0.00 0.00 76 1017.3
20260507075802 44 303 0.0 0.0 0.00 0.00 0.00 75 1017.3
20260507075306 44 303 0.0 0.0 0.00 0.00 0.00 75 1017.3
20260507074302 44 303 0.0 0.0 0.00 0.00 0.00 74 1017.1
20260507073303 45 303 0.0 0.0 0.00 0.00 0.00 74 1017.1
20260507072802 45 303 0.0 0.0 0.00 0.00 0.00 73 1017.1
20260507072306 45 303 0.0 0.0 0.00 0.00 0.00 73 1017.1
20260507071802 45 303 0.0 0.0 0.00 0.00 0.00 73 1017.1
20260507071302 45 303 0.0 0.0 0.00 0.00 0.00 72 1017.1
20260507070803 45 303 0.0 0.0 0.00 0.00 0.00 72 1017.2
20260507070302 45 303 0.0 0.0 0.00 0.00 0.00 72 1017.2
20260507065803 45 303 0.0 0.0 0.00 0.00 0.00 71 1017.2
20260507065305 46 303 0.0 0.0 0.00 0.00 0.00 71 1017.2
20260507064802 46 303 0.0 0.0 0.00 0.00 0.00 71 1017.4
20260507064303 46 303 0.0 0.0 0.00 0.00 0.00 70 1017.4
20260507063803 46 303 0.0 0.0 0.00 0.00 0.00 69 1017.4
20260507063302 46 303 0.0 0.0 0.00 0.00 0.00 69 1017.4
20260507062306 46 303 0.0 0.0 0.00 0.00 0.00 69 1017.6
20260507061303 47 303 0.0 0.0 0.00 0.00 0.00 68 1017.6
20260507060803 47 303 0.0 0.0 0.00 0.00 0.00 68 1017.3
20260507060303 47 303 0.0 0.0 0.00 0.00 0.00 67 1017.3
20260507055803 47 303 0.0 0.0 0.00 0.00 0.00 66 1017.3
20260507055305 47 303 0.0 0.0 0.00 0.00 0.00 66 1017.3
20260507054802 47 303 0.0 0.0 0.00 0.00 0.00 65 1017.3
20260507054303 48 303 0.0 0.0 0.00 0.00 0.00 65 1017.3
20260507053802 48 303 0.0 0.0 0.00 0.00 0.00 64 1017.3
20260507052803 48 303 0.0 0.0 0.00 0.00 0.00 64 1017.3
20260507052305 48 303 0.0 0.0 0.00 0.00 0.00 63 1017.3
20260507051803 49 303 0.0 0.0 0.00 0.00 0.00 63 1017.3
20260507051302 49 303 0.0 0.0 0.00 0.00 0.00 62 1017.3
20260507050819 49 303 0.0 0.0 0.00 0.00 0.00 62 1017.1
20260507050303 49 303 0.0 0.0 0.00 0.00 0.00 62 1017.1
20260507045802 49 303 0.0 0.0 0.00 0.00 0.19 61 1017.1
20260507045306 49 303 0.0 0.0 0.00 0.00 0.19 61 1017.1
20260507044803 50 303 0.0 0.0 0.00 0.00 0.19 60 1017.0
20260507043803 50 303 0.0 0.0 0.00 0.00 0.19 59 1017.0
20260507043303 50 303 0.0 0.0 0.00 0.00 0.19 58 1017.0
20260507042803 50 303 0.0 0.0 0.00 0.00 0.19 58 1016.9
20260507042306 51 303 0.0 0.0 0.00 0.00 0.19 57 1016.9
20260507041302 51 303 0.0 0.0 0.00 0.00 0.19 56 1016.9
20260507040802 51 303 0.0 0.0 0.00 0.00 0.19 55 1016.8
20260507040303 51 303 0.0 0.0 0.00 0.00 0.19 55 1016.8
20260507035306 52 303 0.0 0.0 0.00 0.00 0.19 54 1016.8
20260507034802 52 347 0.0 0.0 0.00 0.00 0.19 53 1017.0
20260507034303 52 347 0.0 0.0 0.00 0.00 0.19 53 1017.0
20260507033802 52 303 0.0 0.0 0.00 0.00 0.19 52 1017.0
20260507033303 53 303 0.0 0.0 0.00 0.00 0.19 52 1017.0
20260507032803 53 303 0.0 0.0 0.00 0.00 0.19 51 1016.8
20260507031803 53 303 0.0 0.0 0.00 0.00 0.19 49 1016.8
20260507031303 54 303 0.0 0.0 0.00 0.00 0.19 49 1016.8
20260507030303 54 308 0.0 0.0 0.00 0.00 0.19 49 1017.0
20260507025802 55 347 0.0 1.7 0.00 0.00 0.19 49 1017.0
20260507025306 55 14 0.0 1.7 0.00 0.00 0.19 49 1017.0
20260507024804 55 303 0.9 0.0 0.00 0.00 0.19 48 1017.0
20260507023803 55 10 0.0 2.6 0.00 0.00 0.19 48 1017.0
20260507023303 55 230 0.0 1.7 0.00 0.00 0.19 48 1017.0
20260507022802 55 77 0.0 0.0 0.00 0.00 0.19 48 1016.5
20260507022306 55 85 0.0 1.7 0.00 0.00 0.19 48 1016.5
20260507021802 56 347 0.0 1.7 0.00 0.00 0.19 48 1016.5
20260507021303 56 334 0.0 2.6 0.00 0.00 0.19 48 1016.5
20260507020803 56 257 0.0 0.0 0.00 0.00 0.19 47 1016.1
20260507015802 56 325 0.0 0.0 0.00 0.00 0.19 47 1016.1
20260507014803 56 325 0.0 0.0 0.00 0.03 0.19 46 1015.8
20260507014303 57 347 0.0 0.0 0.00 0.07 0.19 45 1015.8
20260507013802 57 347 0.0 0.0 0.00 0.07 0.19 45 1015.8
20260507013303 57 3 0.0 0.0 0.00 0.07 0.19 45 1015.8
20260507012306 58 303 0.0 0.0 0.00 0.07 0.19 43 1015.3
20260507011802 58 347 0.9 0.0 0.00 0.07 0.19 43 1015.3
20260507011303 58 8 0.9 4.3 0.00 0.07 0.19 42 1015.3
20260507010803 58 325 0.9 4.3 0.00 0.07 0.19 42 1014.9
20260507010303 59 0 0.9 7.0 0.00 0.07 0.19 41 1014.9
20260507005305 60 330 0.9 2.6 0.00 0.07 0.19 40 1014.9
20260507004803 60 190 0.9 4.3 0.00 0.07 0.19 39 1014.9
20260507003803 61 347 0.9 2.6 0.00 0.07 0.19 40 1014.9
20260507003303 61 336 0.9 2.6 0.00 0.07 0.19 40 1014.9
20260507002803 60 190 0.9 4.3 0.00 0.07 0.19 40 1015.5
20260507002306 60 148 0.9 2.6 0.00 0.07 0.19 39 1015.5
20260507000803 61 190 1.7 10.4 0.00 0.07 0.19 39 1014.9
20260507000306 61 347 1.7 10.4 0.00 0.07 0.19 39 1014.9
20260506235803 61 303 1.7 2.6 0.00 0.07 0.19 38 1014.9
20260506235306 61 319 2.6 5.2 0.00 0.07 0.19 38 1014.9
20260506234803 62 33 4.3 7.8 0.00 0.07 0.19 38 1015.1
20260506234303 61 212 4.3 10.4 0.00 0.07 0.19 37 1015.1
20260506233303 62 322 2.6 6.1 0.00 0.07 0.19 36 1015.1
20260506232803 63 100 2.6 12.2 0.00 0.07 0.19 36 1014.4
20260506232306 63 176 4.3 6.1 0.00 0.07 0.19 36 1014.4
20260506231803 64 303 3.5 11.3 0.00 0.07 0.19 35 1014.4
20260506231303 67 269 1.7 12.2 0.00 0.07 0.19 34 1014.4
20260506230802 68 55 1.7 12.2 0.00 0.07 0.19 32 1014.1
20260506230303 69 279 2.6 6.1 0.00 0.07 0.19 36 1014.1
20260506225803 68 347 4.3 6.1 0.00 0.07 0.19 34 1014.1
20260506225305 67 296 4.3 15.6 0.00 0.07 0.19 34 1014.1
20260506224804 66 280 3.5 7.8 0.00 0.07 0.19 34 1014.5
20260506224303 66 347 3.5 7.8 0.00 0.07 0.19 33 1014.5
20260506223303 67 242 4.3 11.3 0.00 0.07 0.19 33 1014.5
20260506222803 67 10 4.3 4.3 0.00 0.07 0.19 33 1014.3
20260506222306 68 316 3.5 8.7 0.00 0.07 0.19 34 1014.3
20260506221803 68 235 2.6 7.0 0.00 0.07 0.19 34 1014.3
20260506221303 68 339 3.5 6.1 0.00 0.07 0.19 33 1014.3
20260506220303 67 347 5.2 13.9 0.00 0.07 0.19 34 1014.6
20260506215803 69 303 4.3 7.0 0.00 0.07 0.19 35 1014.6
20260506214803 69 303 4.3 8.7 0.00 0.07 0.19 33 1014.5
20260506214303 68 328 4.3 8.7 0.00 0.07 0.19 36 1014.5
20260506213303 68 264 4.3 7.0 0.00 0.07 0.19 36 1014.5
20260506212803 68 213 4.3 10.4 0.00 0.07 0.19 36 1014.8
20260506212306 67 323 4.3 10.4 0.00 0.07 0.19 35 1014.8
20260506211802 66 347 4.3 8.7 0.00 0.07 0.19 36 1014.8
20260506211303 68 299 4.3 5.2 0.00 0.07 0.19 37 1014.8
20260506210803 68 10 3.5 7.0 0.00 0.07 0.19 36 1015.0
20260506210303 69 286 1.7 6.1 0.00 0.07 0.19 37 1015.0
20260506205803 68 77 1.7 4.3 0.00 0.07 0.19 38 1015.0
20260506205306 66 296 2.6 2.6 0.00 0.07 0.19 37 1015.0
20260506204803 65 100 4.3 8.7 0.00 0.07 0.19 37 1015.3
20260506204303 65 202 4.3 8.7 0.00 0.07 0.19 36 1015.3
20260506203804 68 33 4.3 7.8 0.00 0.07 0.19 36 1015.3